Temperature
17 17 17 17 17 17 17 17 17 17 17 16 16 16 16 16 16 16 16 15 15 15 15 14 14 14 14 14 14 13 13 13 13 13 13 13 13 13
16 16 16 16 17 17 17 17 17 17 17 16 16 16 16 16 16 15 15 15 15 14 14 14 14 14 13 13 13 13 13 13 13 12 12 12 12 12
16 16 16 16 16 16 17 17 17 17 16 16 16 16 16 15 15 15 15 14 14 14 14 13 13 13 13 13 12 12 12 12 12 11 11 11 11 11
16 16 16 16 16 16 16 16 16 16 16 16 15 15 15 15 15 14 14 14 14 13 13 13 13 12 12 12 12 11 11 11 11 11 10 10 10 10
16 16 16 16 16 16 16 16 16 16 15 15 15 15 14 14 14 14 13 13 13 12 12 12 12 12 11 11 11 11 10 10 10 10 9 9 9 9
15 15 15 15 15 15 15 15 15 15 15 15 14 14 13 13 13 13 13 12 12 11 11 11 11 11 11 10 10 10 9 9 9 9 9 8 8 8
15 15 15 15 15 15 15 14 14 14 14 14 14 13 13 13 12 12 12 12 11 11 10 10 10 10 10 9 9 9 8 8 8 8 8 8 7 7
14 14 14 14 14 14 14 14 14 13 13 13 13 12 12 12 11 11 11 11 10 10 10 9 9 9 9 8 8 8 8 7 7 7 7 7 7 6
14 14 14 14 13 13 13 13 13 13 12 12 12 11 11 11 10 10 10 10 9 9 9 8 8 8 7 7 7 7 7 6 6 6 6 6 6 6
13 13 13 13 12 12 12 12 12 12 11 11 11 10 10 10 9 9 9 9 8 8 8 7 7 7 7 6 6 6 6 6 5 5 5 5 5 5
12 12 12 12 12 11 12 11 11 10 10 10 9 9 9 8 8 8 8 8 8 7 7 6 6 6 6 6 5 5 5 5 5 5 5 5 4 4
12 11 11 11 11 10 10 10 10 9 9 9 8 8 8 8 7 7 7 7 6 6 5 5 5 5 5 5 5 5 4 4 4 4 4 4 4 4
11 11 10 10 10 10 9 9 9 8 8 8 8 7 7 7 6 6 6 6 5 5 5 5 4 4 4 4 4 4 4 4 4 4 4 4 4 3
10 10 9 9 9 9 8 8 8 8 7 7 6 6 6 6 5 5 5 5 5 4 4 4 4 3 3 3 3 3 3 3 3 3 3 3 3 3
9 9 8 8 8 7 7 7 7 7 6 6 6 5 5 5 5 5 4 4 4 4 3 3 3 3 3 3 3 3 3 3 3 3 3 3 3 3
8 8 7 7 7 7 6 6 6 6 5 5 5 5 5 4 4 4 4 4 3 3 3 3 3 3 3 3 3 3 3 2 2 2 2 2 2 2
8 7 7 6 6 6 6 5 5 5 5 5 5 4 4 4 4 3 3 3 3 3 3 3 2 2 2 2 2 2 2 2 2 2 2 2 2 2
7 7 6 6 6 5 5 5 5 5 4 4 4 4 4 3 3 3 3 3 3 2 2 2 2 2 3 3 2 2 2 2 2 2 2 2 2 2
7 6 6 6 5 5 5 5 4 4 4 4 4 3 3 3 3 3 3 3 2 2 2 2 2 2 2 2 2 2 2 2 2 2 2 2 2 2
6 6 5 5 5 5 4 4 4 4 4 3 3 3 3 3 3 2 2 2 2 2 2 2 2 2 2 2 2 2 2 2 2 2 2 2 2 2
5 5 5 5 5 4 4 4 4 4 3 3 3 3 3 3 2 2 2 2 2 2 2 2 2 2 2 2 2 2 2 2 2 2 1 1 2 2
5 5 5 5 4 4 4 4 4 3 3 3 3 3 2 2 2 2 2 2 2 1 1 1 2 2 2 2 2 2 2 2 2 2 2 2 1 1
5 5 5 4 4 4 4 4 4 3 3 3 3 3 2 2 2 2 2 1 1 1 1 1 1 1 1 1 1 1 1 1 1 1 2 2 1 1
Wind_Speed
5 4 3 3 2 3 3 4 5 3 1 1 1 1 2 5 6 7 7 8 8 8 7 5 4 3 3 2 1 1 2 3 3 5 5 6 7 7
4 4 3 2 2 2 2 2 3 4 3 1 0 1 2 4 5 6 7 7 7 7 6 5 4 3 3 2 1 1 1 2 3 4 5 6 6 7
4 5 4 4 3 2 2 2 3 4 3 1 1 2 2 3 5 5 4 4 4 4 4 3 3 3 3 2 2 1 2 2 3 4 5 6 7 7
5 5 4 4 4 3 2 3 2 3 4 3 1 2 3 2 4 4 4 4 4 3 3 2 2 2 2 3 2 2 2 2 3 3 4 5 6 7
6 6 5 4 3 2 3 3 2 3 3 4 2 2 3 3 4 4 5 4 5 6 5 4 3 3 4 4 4 3 2 2 3 4 4 5 6 7
4 5 5 5 5 4 3 3 3 4 5 5 3 2 3 2 3 3 3 3 3 5 7 6 6 5 4 3 3 3 2 2 3 4 5 6 7 8
4 4 4 6 7 5 3 3 4 5 5 5 4 3 3 3 2 1 2 2 3 4 3 5 6 6 6 4 3 3 3 3 5 6 7 8 9 11
6 6 6 8 10 11 10 9 7 7 6 4 3 4 2 2 2 2 2 2 2 3 3 3 4 3 5 5 6 6 5 6 7 8 9 10 11 12
6 6 6 7 8 8 12 14 13 13 10 7 6 4 3 1 2 3 3 4 2 3 2 3 3 3 5 6 8 9 8 8 9 9 10 11 13 13
7 7 8 7 7 9 10 11 10 9 10 9 8 6 5 3 3 3 3 3 3 4 4 2 3 3 4 6 9 11 11 11 12 12 13 14 14 14
8 8 8 8 10 12 12 12 11 9 14 17 16 14 13 12 9 5 5 5 3 3 3 2 3 3 3 3 9 13 13 14 14 14 14 15 16 15
8 8 11 11 11 12 10 10 10 7 7 9 10 11 11 12 11 6 4 4 2 2 3 2 2 3 3 3 6 11 13 14 15 14 14 15 16 12
8 6 7 13 14 13 11 9 9 7 7 7 6 5 5 6 6 7 5 3 3 0 2 1 1 2 1 3 4 6 9 9 11 11 14 16 16 13
8 7 8 14 15 14 11 11 12 10 7 6 6 5 4 3 3 6 8 7 4 2 2 2 1 0 1 2 4 4 6 10 8 6 11 15 15 16
9 12 13 14 13 11 13 13 10 7 6 6 5 3 2 2 4 5 7 8 8 8 7 5 1 0 0 2 3 4 4 5 6 5 7 8 8 9
10 11 13 13 11 10 9 7 6 5 5 5 3 2 2 4 4 3 3 3 4 5 8 8 6 1 1 3 3 4 4 4 5 6 5 6 11 12
9 7 6 6 6 5 5 5 5 5 5 3 4 4 4 4 3 3 3 3 3 3 5 5 9 8 4 3 3 5 5 5 6 6 5 6 6 10
9 7 6 6 5 5 4 4 4 4 4 4 4 3 3 3 3 3 3 3 2 2 3 4 4 5 5 4 5 4 4 5 6 6 4 4 6 8
8 7 6 5 4 4 4 4 3 3 3 4 3 3 3 3 3 3 3 3 3 3 3 3 3 2 4 6 6 6 4 5 5 5 5 4 5 7
6 6 5 4 4 4 4 4 4 4 4 4 3 3 3 3 3 3 3 2 2 3 4 4 4 3 2 4 4 6 11 6 4 5 5 5 6 10
5 5 4 4 5 5 5 4 4 4 4 3 3 3 3 3 2 2 2 4 3 3 4 5 6 9 4 2 4 6 7 14 10 6 5 5 6 5
5 5 4 5 5 5 4 4 4 4 4 3 3 2 2 2 2 2 2 3 3 3 4 5 6 6 3 3 5 6 6 8 14 17 13 9 4 4
5 5 5 5 5 4 5 5 5 4 3 3 2 2 2 2 2 2 2 3 3 4 4 5 5 4 4 4 4 5 7 7 5 6 8 16 17 16
Wind_Direction
186 183 184 201 189 187 173 161 155 167 232 284 321 331 148 155 172 166 163 169 176 180 183 184 185 180 167 147 114 60 18 6 1 356 354 350 346 341
184 180 194 202 178 168 162 154 152 157 183 245 244 344 84 114 134 147 156 162 174 181 185 190 188 177 170 162 150 116 29 15 11 5 5 2 357 351
189 183 192 184 161 149 136 132 134 136 154 168 44 29 65 84 82 106 118 121 137 156 167 169 177 185 177 157 120 97 61 43 32 25 18 13 7 360
188 177 185 180 162 155 141 130 136 137 146 152 74 45 50 77 84 84 73 82 99 99 115 112 111 128 136 133 120 108 79 55 38 23 12 6 2 357
180 173 173 158 160 148 138 145 144 128 126 135 128 61 47 58 68 65 57 47 65 62 59 56 64 97 114 116 96 82 68 39 16 1 352 350 347 344
162 157 156 152 156 149 140 148 134 115 112 117 112 76 53 38 72 67 45 29 39 44 46 50 60 72 78 89 74 59 45 19 3 353 343 336 330 328
124 121 126 122 121 123 127 130 127 121 114 111 105 84 57 54 55 42 68 42 35 32 33 36 45 44 39 45 48 39 22 356 345 340 334 328 325 323
120 107 100 96 97 95 96 98 113 125 125 117 109 106 94 67 45 65 71 66 27 360 38 30 37 27 20 33 25 14 1 349 342 337 334 330 326 323
124 120 109 98 94 94 85 77 73 82 98 117 115 114 113 108 91 69 62 71 51 331 35 29 10 5 3 15 13 2 351 346 344 340 338 337 335 331
98 102 105 100 103 107 98 85 74 67 80 87 98 93 93 88 89 102 101 87 51 9 31 46 346 339 342 356 6 0 352 343 338 334 331 332 331 328
88 91 102 102 104 108 105 100 89 78 80 86 87 84 78 72 71 72 62 67 43 356 4 50 338 333 335 332 348 352 350 344 340 336 335 334 331 327
87 81 87 99 103 107 107 107 102 95 89 81 72 67 63 59 58 67 89 88 80 0 335 31 348 358 345 324 328 339 343 343 344 344 341 338 335 330
103 91 87 96 97 95 96 100 107 103 90 86 80 69 58 49 44 48 62 102 104 37 303 69 14 5 339 308 316 322 331 332 336 337 338 336 333 328
110 105 100 97 93 91 89 91 91 89 88 82 77 66 55 42 30 36 46 55 74 86 7 65 107 293 320 319 309 313 320 325 326 318 324 329 330 330
106 107 102 96 89 84 85 87 86 86 89 87 81 66 47 37 40 38 38 41 35 30 25 28 62 319 189 261 287 296 308 308 312 314 315 314 309 314
103 99 92 86 83 83 81 78 80 89 96 97 94 64 40 41 38 40 43 26 26 357 360 5 358 3 309 286 275 292 295 294 304 308 305 303 308 309
114 99 91 90 85 77 73 70 70 74 77 73 74 62 48 42 28 28 47 46 38 359 340 337 343 333 285 253 292 295 297 299 296 305 312 308 297 301
110 110 109 108 107 103 98 83 72 78 79 78 69 65 62 53 35 24 35 40 23 348 330 323 339 351 351 321 258 267 293 291 297 302 299 301 298 300
105 110 112 116 114 113 109 105 95 84 83 81 74 64 62 55 51 36 27 23 7 342 323 322 342 8 352 328 304 295 281 297 303 304 296 288 286 294
105 115 119 119 116 112 111 105 95 84 77 77 70 63 61 62 49 33 23 11 351 341 336 331 329 321 291 278 281 295 309 296 298 299 296 296 287 293
113 115 118 117 115 117 116 107 100 94 87 80 69 59 55 58 43 23 12 2 4 350 338 317 298 312 297 319 319 309 302 315 313 292 291 301 307 310
122 124 123 122 121 119 115 110 100 94 88 80 66 50 45 54 40 16 4 353 339 325 314 304 313 332 350 337 315 305 307 315 325 330 324 309 295 303
138 134 129 127 123 120 117 117 113 106 101 91 73 47 37 30 10 2 347 342 335 328 323 321 326 333 322 310 307 304 310 314 315 323 319 324 325 318
Height
1562 1564 1565 1566 1568 1568 1569 1570 1571 1571 1572 1572 1573 1573 1574 1574 1575 1575 1576 1576 1576 1576 1575 1575 1574 1574 1573 1572 1572 1571 1570 1569 1568 1567 1566 1565 1564 1563
1558 1560 1562 1563 1565 1566 1567 1567 1568 1569 1569 1570 1570 1571 1572 1572 1572 1573 1573 1573 1573 1573 1573 1572 1572 1571 1570 1570 1569 1568 1567 1566 1565 1563 1562 1561 1560 1558
1554 1556 1558 1560 1561 1563 1564 1565 1565 1566 1566 1567 1568 1569 1569 1570 1570 1570 1571 1571 1570 1570 1570 1569 1569 1568 1568 1567 1566 1565 1564 1563 1561 1560 1558 1557 1555 1554
1550 1552 1554 1556 1558 1559 1560 1561 1562 1563 1564 1564 1565 1566 1567 1567 1567 1568 1568 1568 1567 1567 1567 1566 1566 1565 1564 1564 1563 1562 1560 1559 1558 1556 1555 1553 1551 1549
1547 1549 1550 1552 1553 1555 1556 1558 1559 1560 1561 1561 1562 1563 1564 1564 1564 1564 1565 1565 1564 1564 1563 1563 1563 1562 1561 1560 1559 1558 1557 1556 1554 1552 1551 1549 1547 1545
1543 1545 1547 1548 1550 1552 1553 1554 1555 1556 1557 1558 1559 1560 1561 1561 1561 1561 1561 1562 1561 1561 1560 1560 1559 1559 1558 1557 1556 1555 1554 1552 1551 1549 1547 1545 1543 1541
1540 1542 1544 1545 1547 1548 1549 1550 1552 1553 1554 1554 1555 1557 1557 1558 1558 1558 1558 1558 1558 1558 1558 1557 1556 1556 1555 1554 1553 1551 1550 1549 1547 1546 1544 1542 1539 1537
1538 1540 1541 1543 1544 1546 1547 1548 1549 1550 1551 1552 1552 1553 1554 1555 1555 1555 1555 1555 1555 1556 1555 1554 1554 1553 1552 1551 1550 1549 1547 1546 1544 1542 1540 1538 1535 1533
1535 1537 1538 1540 1542 1543 1544 1546 1547 1548 1549 1550 1550 1551 1552 1552 1553 1552 1552 1553 1553 1553 1553 1552 1551 1550 1550 1548 1547 1546 1544 1542 1541 1539 1537 1534 1532 1529
1533 1535 1536 1538 1540 1541 1543 1544 1545 1546 1547 1548 1549 1549 1550 1551 1551 1551 1551 1551 1551 1551 1551 1550 1549 1548 1547 1546 1545 1543 1541 1539 1537 1535 1533 1530 1528 1525
1531 1533 1535 1536 1538 1540 1541 1542 1544 1545 1546 1547 1548 1549 1550 1550 1550 1550 1549 1549 1549 1549 1549 1548 1547 1546 1545 1544 1542 1540 1538 1536 1534 1532 1529 1527 1524 1521
1531 1533 1535 1536 1538 1540 1541 1542 1543 1544 1546 1547 1548 1549 1549 1549 1549 1549 1548 1548 1548 1548 1548 1547 1546 1545 1543 1542 1540 1538 1536 1533 1531 1529 1526 1523 1520 1517
1530 1533 1535 1537 1539 1540 1542 1543 1544 1545 1545 1547 1548 1548 1549 1549 1549 1549 1549 1548 1548 1547 1547 1546 1545 1543 1542 1540 1538 1536 1533 1531 1528 1525 1523 1520 1516 1513
1531 1534 1536 1538 1540 1541 1542 1544 1545 1546 1546 1547 1548 1548 1549 1549 1549 1549 1549 1548 1548 1547 1546 1545 1544 1542 1540 1537 1535 1533 1531 1528 1525 1522 1519 1516 1513 1509
1533 1535 1537 1539 1541 1542 1544 1545 1546 1547 1548 1548 1549 1550 1550 1550 1550 1549 1549 1549 1548 1547 1546 1545 1543 1541 1539 1537 1534 1531 1528 1526 1523 1519 1516 1512 1509 1505
1534 1536 1539 1541 1543 1544 1545 1547 1547 1548 1549 1550 1550 1551 1551 1551 1550 1550 1549 1548 1547 1546 1545 1544 1542 1540 1538 1535 1533 1530 1527 1524 1520 1517 1513 1509 1506 1502
1535 1537 1540 1542 1544 1545 1547 1548 1549 1550 1551 1551 1552 1552 1552 1551 1551 1550 1550 1549 1547 1546 1545 1543 1541 1539 1536 1534 1531 1528 1524 1521 1518 1514 1510 1505 1502 1499
1537 1538 1541 1543 1545 1546 1548 1549 1550 1551 1552 1553 1553 1552 1552 1552 1551 1551 1550 1549 1548 1546 1544 1542 1539 1537 1534 1532 1530 1525 1522 1518 1515 1511 1507 1502 1498 1495
1539 1540 1542 1544 1546 1548 1549 1550 1552 1553 1553 1553 1553 1553 1553 1552 1552 1551 1550 1549 1547 1546 1544 1541 1538 1535 1532 1529 1527 1524 1520 1516 1512 1508 1504 1500 1496 1492
1541 1542 1545 1547 1549 1550 1551 1552 1553 1554 1554 1554 1554 1554 1553 1552 1551 1551 1550 1548 1547 1545 1543 1540 1538 1535 1532 1529 1525 1522 1519 1514 1510 1505 1501 1497 1493 1490
1542 1545 1547 1549 1551 1552 1553 1554 1554 1554 1554 1554 1554 1554 1553 1552 1551 1550 1549 1548 1546 1544 1542 1539 1537 1535 1531 1528 1524 1520 1516 1513 1509 1504 1499 1495 1490 1485
1544 1547 1549 1551 1552 1553 1554 1554 1554 1554 1554 1554 1554 1553 1553 1552 1551 1550 1548 1547 1545 1543 1541 1539 1536 1533 1530 1526 1522 1518 1514 1510 1507 1503 1499 1495 1490 1484
1547 1549 1550 1552 1553 1554 1554 1554 1554 1554 1554 1554 1553 1553 1552 1551 1550 1549 1548 1546 1544 1542 1540 1537 1534 1531 1528 1525 1521 1517 1513 1508 1504 1500 1496 1493 1489 1485